User: anonymous   Login
Location: Caltech
(34.1382°N, 118.1253°W)
Time: 11:48:01
(UTC-07:00)
Language:

Iridium 91 - Orbit

View from above orbital plane
View from above orbital plane
View from above satellite
View from above satellite

Ground track
Ground track

The orbit data is extracted from the following two-line orbital elements,

1 27372U 02005A   16146.41076225  .00000185  00000-0  58937-4 0  9993
2 27372  86.3980  89.9184 0002541  83.4465  56.0826 14.34222523756045
Epoch (UTC): 25 May 2016 09:51:29
Eccentricity: 0.0002541
inclination: 86.3980°
perigee height: 776 km
apogee height: 779 km
right ascension of ascending node: 89.9184°
argument of perigee: 83.4465°
revolutions per day: 14.34222523
mean anomaly at epoch: 56.0826°
orbit number at epoch: 75604

The dashed part of the orbit path shows where the satellite is in the earth's shadow,  

DLR